Location: Newark
(44.9861°N, 0.2536°E)
Time: 19:23:59
(UTC+00:00)

HuskySat-1 - Pass Details

Date: 16 July 2020
Orbit: 457 x 471 km, 51.6° (Epoch: 11 August)

Event Time Altitude Azimuth Distance (km) Brightness Sun altitude
Rises 21:57:50 0° 228° (SW) 2,493 ? -17.8°
Reaches altitude 10° 22:00:00 10° 225° (SW) 1,618 ? -18.0°
Maximum altitude 22:03:35 59° 145° (SE) 542 ? -18.3°
Drops below altitude 10° 22:07:11 10° 66° (ENE) 1,618 ? -18.6°
Sets 22:09:21 0° 62° (ENE) 2,493 ? -18.8°
